Mount Sterling, KY

5:13 PM EST on December 08, 2016 (GMT -0500)
Mount Sterling-Montgomery County

Weather History for KIOB - January, 2013

Change the Weather History Date:

Friday, January 4, 2013

  Actual Average Record
Temperature  
Mean Temperature 32 °F -  
Max Temperature 37 °F 44 °F 59 °F (2015)
Min Temperature 28 °F 25 °F 14 °F (2014)
Degree Days  
Heating Degree Days 32    
Moisture  
Dew Point 25 °F    
Average Humidity 75    
Maximum Humidity 86    
Minimum Humidity 65    
Precipitation  
Precipitation 0.00 in - - ()
Sea Level Pressure  
Sea Level Pressure 30.37 in    
Wind  
Wind Speed 8 mph (West)    
Max Wind Speed 15 mph    
Max Gust Speed 24 mph    
Visibility 10 miles    
Events      
Averages and records for this station are not official NWS values.
T = Trace of Precipitation, MM = Missing Value Source: NWS Daily Summary

Daily Weather History Graph

Daily Weather History Graph

Search for Another Location

Airport or City:

Trip Planner

Search our weather history database for the weather conditions in past years. The results will help you decide how hot, cold, wet, or windy it might be!

Date:

Astronomy

Jan. 04, 2013 Rise Set
Actual Time 7:52 AM EST 5:29 PM EST
Civil Twilight 7:23 AM EST 5:59 PM EST
Nautical Twilight 6:50 AM EST 6:32 PM EST
Astronomical Twilight 6:18 AM EST 7:03 PM EST
Moon No Moon Rise 11:42 AM EST (1/4)
Length of Visible Light 10h 35m
Length of Day
9h 37m
Waning Gibbous, 55% of the Moon is Illuminated
Jan 4
Waning Gibbous
Jan 4
Last Quarter
Jan 11
New
Jan 18
First Quarter
Jan 26
Full

Hourly Weather History & Observations

Time (EST) Temp. Windchill Dew Point Humidity Pressure Visibility Wind Dir Wind Speed Gust Speed Precip Events Conditions
12:15 AM 28.4 °F 20.4 °F 23.0 °F 80% 30.36 in 10.0 mi NW 8.1 mph - N/A   Scattered Clouds
12:35 AM 28.4 °F 18.5 °F 23.0 °F 80% 30.36 in 10.0 mi NW 11.5 mph - N/A   Scattered Clouds
12:55 AM 30.2 °F 24.3 °F 23.0 °F 75% 30.36 in 10.0 mi WNW 5.8 mph - N/A   Mostly Cloudy
1:15 AM 28.4 °F 21.2 °F 23.0 °F 80% 30.36 in 10.0 mi WNW 6.9 mph - N/A   Mostly Cloudy
1:35 AM 28.4 °F 21.2 °F 23.0 °F 80% 30.35 in 10.0 mi WNW 6.9 mph - N/A   Overcast
1:55 AM 30.2 °F 21.9 °F 23.0 °F 75% 30.35 in 10.0 mi WNW 9.2 mph - N/A   Overcast
2:15 AM 30.2 °F 22.6 °F 23.0 °F 75% 30.36 in 10.0 mi WNW 8.1 mph - N/A   Overcast
2:35 AM 30.2 °F 22.6 °F 23.0 °F 75% 30.36 in 10.0 mi WNW 8.1 mph - N/A   Overcast
2:55 AM 30.2 °F 25.4 °F 23.0 °F 75% 30.36 in 10.0 mi WNW 4.6 mph - N/A   Overcast
3:35 AM 30.2 °F 26.7 °F 23.0 °F 75% 30.35 in 10.0 mi WNW 3.5 mph - N/A   Overcast
3:55 AM 30.2 °F 25.4 °F 23.0 °F 75% 30.35 in 10.0 mi West 4.6 mph - N/A   Overcast
4:15 AM 30.2 °F 24.3 °F 23.0 °F 75% 30.35 in 10.0 mi West 5.8 mph - N/A   Overcast
6:55 AM 30.2 °F 24.3 °F 23.0 °F 75% 30.36 in 10.0 mi WNW 5.8 mph - N/A   Overcast
7:15 AM 30.2 °F 23.4 °F 23.0 °F 75% 30.37 in 10.0 mi WNW 6.9 mph - N/A   Overcast
7:35 AM 30.2 °F 23.4 °F 23.0 °F 75% 30.37 in 10.0 mi WNW 6.9 mph - N/A   Overcast
7:55 AM 30.2 °F 25.4 °F 23.0 °F 75% 30.37 in 10.0 mi WNW 4.6 mph - N/A   Overcast
8:15 AM 30.2 °F 25.4 °F 23.0 °F 75% 30.37 in 10.0 mi West 4.6 mph - N/A   Overcast
8:35 AM 30.2 °F 24.3 °F 23.0 °F 75% 30.37 in 10.0 mi West 5.8 mph - N/A   Mostly Cloudy
8:55 AM 30.2 °F 25.4 °F 24.8 °F 80% 30.38 in 10.0 mi SW 4.6 mph - N/A   Scattered Clouds
9:15 AM 30.2 °F 23.4 °F 24.8 °F 80% 30.38 in 10.0 mi WSW 6.9 mph - N/A   Mostly Cloudy
9:35 AM 30.2 °F 22.6 °F 26.6 °F 86% 30.38 in 10.0 mi WSW 8.1 mph - N/A   Mostly Cloudy
9:55 AM 32.0 °F 24.8 °F 24.8 °F 75% 30.38 in 10.0 mi West 8.1 mph - N/A   Clear
10:15 AM 32.0 °F 23.6 °F 24.8 °F 75% 30.38 in 10.0 mi West 10.4 mph - N/A   Clear
10:35 AM 32.0 °F 24.2 °F 24.8 °F 75% 30.39 in 10.0 mi West 9.2 mph 17.3 mph N/A   Clear
10:55 AM 33.8 °F 27.0 °F 26.6 °F 75% 30.39 in 10.0 mi WNW 8.1 mph - N/A   Clear
11:15 AM 33.8 °F 25.3 °F 26.6 °F 75% 30.40 in 10.0 mi WNW 11.5 mph 17.3 mph N/A   Clear
11:35 AM 33.8 °F 24.3 °F 26.6 °F 75% 30.40 in 10.0 mi WNW 13.8 mph 19.6 mph N/A   Mostly Cloudy
11:55 AM 33.8 °F 25.8 °F 24.8 °F 70% 30.39 in 10.0 mi WNW 10.4 mph 20.7 mph N/A   Mostly Cloudy
12:15 PM 35.6 °F 26.6 °F 26.6 °F 70% 30.37 in 10.0 mi West 13.8 mph 18.4 mph N/A   Scattered Clouds
12:35 PM 35.6 °F 26.6 °F 26.6 °F 70% 30.37 in 10.0 mi West 13.8 mph 20.7 mph N/A   Scattered Clouds
12:55 PM 35.6 °F 26.2 °F 26.6 °F 70% 30.36 in 10.0 mi West 15.0 mph 24.2 mph N/A   Mostly Cloudy
1:15 PM 35.6 °F 27.1 °F 26.6 °F 70% 30.35 in 10.0 mi West 12.7 mph 20.7 mph N/A   Overcast
1:35 PM 37.4 °F 29.3 °F 26.6 °F 65% 30.35 in 10.0 mi West 12.7 mph 18.4 mph N/A   Mostly Cloudy
1:55 PM 35.6 °F 26.6 °F 26.6 °F 70% 30.34 in 10.0 mi WNW 13.8 mph 19.6 mph N/A   Mostly Cloudy
2:15 PM 35.6 °F 27.5 °F 26.6 °F 70% 30.34 in 10.0 mi WNW 11.5 mph 23.0 mph N/A   Mostly Cloudy
2:35 PM 35.6 °F 29.2 °F 26.6 °F 70% 30.34 in 10.0 mi WNW 8.1 mph 18.4 mph N/A   Mostly Cloudy
2:55 PM 35.6 °F 26.6 °F 24.8 °F 65% 30.34 in 10.0 mi NW 13.8 mph 18.4 mph N/A   Overcast
3:15 PM 35.6 °F 27.5 °F 26.6 °F 70% 30.35 in 10.0 mi WNW 11.5 mph 16.1 mph N/A   Overcast
3:35 PM 35.6 °F 28.6 °F 26.6 °F 70% 30.35 in 10.0 mi WNW 9.2 mph 17.3 mph N/A   Overcast
3:55 PM 35.6 °F 27.1 °F 26.6 °F 70% 30.36 in 10.0 mi NW 12.7 mph 18.4 mph N/A   Overcast
4:15 PM 35.6 °F 28.0 °F 26.6 °F 70% 30.37 in 10.0 mi WNW 10.4 mph 21.9 mph N/A   Overcast
4:35 PM 35.6 °F 28.0 °F 26.6 °F 70% 30.37 in 10.0 mi WNW 10.4 mph 16.1 mph N/A   Mostly Cloudy
4:55 PM 33.8 °F 27.7 °F 24.8 °F 70% 30.37 in 10.0 mi WNW 6.9 mph - N/A   Scattered Clouds
5:15 PM 33.8 °F 27.7 °F 26.6 °F 75% 30.36 in 10.0 mi West 6.9 mph - N/A   Clear
5:35 PM 33.8 °F 27.7 °F 26.6 °F 75% 30.37 in 10.0 mi West 6.9 mph - N/A   Clear
5:55 PM 32.0 °F 25.6 °F 26.6 °F 80% 30.37 in 10.0 mi West 6.9 mph - N/A   Clear
6:35 PM 32.0 °F 27.5 °F 24.8 °F 75% 30.36 in 10.0 mi West 4.6 mph - N/A   Clear
6:55 PM 32.0 °F 28.7 °F 24.8 °F 75% 30.37 in 10.0 mi West 3.5 mph - N/A   Clear
7:15 PM 30.2 °F 25.4 °F 24.8 °F 80% 30.37 in 10.0 mi West 4.6 mph - N/A   Clear
7:35 PM 30.2 °F 25.4 °F 24.8 °F 80% 30.37 in 10.0 mi West 4.6 mph - N/A   Clear
7:55 PM 30.2 °F 24.3 °F 24.8 °F 80% 30.38 in 10.0 mi West 5.8 mph - N/A   Clear
8:15 PM 30.2 °F 23.4 °F 24.8 °F 80% 30.37 in 10.0 mi West 6.9 mph - N/A   Clear
8:35 PM 30.2 °F 24.3 °F 24.8 °F 80% 30.37 in 10.0 mi West 5.8 mph - N/A   Clear
9:15 PM 30.2 °F 24.3 °F 23.0 °F 75% 30.37 in 10.0 mi WSW 5.8 mph - N/A   Clear
9:35 PM 28.4 °F 23.3 °F 23.0 °F 80% 30.37 in 10.0 mi WSW 4.6 mph - N/A   Clear
9:55 PM 28.4 °F 23.3 °F 23.0 °F 80% 30.37 in 10.0 mi West 4.6 mph - N/A   Clear
10:15 PM 28.4 °F 22.2 °F 23.0 °F 80% 30.38 in 10.0 mi West 5.8 mph - N/A   Clear
10:35 PM 30.2 °F 24.3 °F 23.0 °F 75% 30.38 in 10.0 mi West 5.8 mph - N/A   Clear
10:55 PM 28.4 °F 20.4 °F 23.0 °F 80% 30.38 in 10.0 mi West 8.1 mph - N/A   Clear
11:15 PM 30.2 °F 23.4 °F 23.0 °F 75% 30.38 in 10.0 mi West 6.9 mph - N/A   Clear
11:35 PM 30.2 °F 23.4 °F 23.0 °F 75% 30.38 in 10.0 mi West 6.9 mph - N/A   Clear
11:55 PM 30.2 °F 24.3 °F 23.0 °F 75% 30.38 in 10.0 mi West 5.8 mph - N/A   Clear